Location: Champs
(48.8539°N, 2.6040°E)
Time: 05:06:32
(UTC+00:00)

Cosmos 1455 - Pass Details

Date: 26 October 2021
Orbit: 496 x 520 km, 82.5° (Epoch: 04 December)

Event Time Altitude Azimuth Distance (km) Brightness Sun altitude
Rises 04:53:54 0° 360° (N) 2,605 5.8 -15.9°
Reaches altitude 10° 04:56:17 10° 13° (NNE) 1,713 5.0 -15.5°
Maximum altitude 04:59:29 26° 72° (ENE) 1,010 4.5 -15.0°
Drops below altitude 10° 05:02:39 10° 130° (SE) 1,697 5.6 -14.5°
Sets 05:05:00 0° 144° (SE) 2,574 6.3 -14.1°
